Location: Clifton Park
(41.4873°N, 81.8024°W)
Time: 01:33:51
(UTC+00:00)

Cosmos 1908 - Pass Details

Date: 21 January 2020
Orbit: 511 x 532 km, 82.5° (Epoch: 28 February)

Event Time Altitude Azimuth Distance (km) Brightness Sun altitude
Rises 11:02:35 0° 173° (S) 2,661 7.0 -19.6°
Reaches altitude 10° 11:04:46 10° 167° (SSE) 1,776 6.2 -19.2°
Maximum altitude 11:08:31 46° 94° (E) 719 4.3 -18.5°
Drops below altitude 10° 11:12:18 10° 20° (NNE) 1,789 6.0 -17.8°
Sets 11:14:30 0° 15° (NNE) 2,683 6.9 -17.4°
